Overview Statistics Trail Chart Weather Telemetry Raw packets
 

This is the latest recevied weather packets stored in our database for station/object VA2RBQ-7. If no packets are shown the sender has not sent any weather packets the latest 10 day(s).

<< 80 81 82 83 84 85 86 >>
Time Temp. Humidity Pressure Rain* Wind** Luminosity Snow
1787946916 13.89° C 68% 1017.3 hPa 6.86 mm - - -
1787946613 14.44° C 68% 1017.2 hPa 6.86 mm - - -
1787946310 13.89° C 68% 1017.4 hPa 6.86 mm - - -
1787946008 13.89° C 68% 1017.5 hPa 6.86 mm - - -
1787945705 13.89° C 68% 1017.4 hPa 6.86 mm - - -
1787945402 13.33° C 68% 1017.3 hPa 6.86 mm - - -
1787945100 13.33° C 68% 1017.2 hPa 5.84 mm - - -
1787944797 13.89° C 69% 1017.3 hPa 1.52 mm - - -
1787944495 14.44° C 69% 1017 hPa 0 mm - - -
1787944192 14.44° C 69% 1016.8 hPa 0 mm - - -
1787943890 14.44° C 69% 1016.9 hPa 0 mm - - -
1787943587 15° C 69% 1017 hPa 0 mm - - -
1787943284 15.56° C 70% 1016.9 hPa 0 mm - - -
1787942982 15.56° C 70% 1017 hPa 0 mm - - -
1787942679 15.56° C 70% 1016.9 hPa 0 mm - - -
1787942377 15.56° C 70% 1016.9 hPa 0 mm - - -
1787942074 15.56° C 70% 1017 hPa 0 mm - - -
1787941771 16.11° C 70% 1017 hPa 0 mm - - -
1787941469 16.11° C 71% 1016.9 hPa 0 mm - - -
1787941166 16.67° C 71% 1017.1 hPa 0 mm - - -
1787940864 17.78° C 71% 1017.1 hPa 0 mm - - -
1787940561 16.11° C 71% 1017.1 hPa 0 mm - - -
1787940258 16.11° C 71% 1017.1 hPa 0 mm - - -
1787939956 16.67° C 71% 1017.1 hPa 0 mm - - -
1787939653 17.78° C 72% 1017.1 hPa 0 mm - - -

* Rain since midnight (hover to see other rain measurements)
** Current wind speed in m/s (hover to see current wind gust speed)